QPF
0.00 0.00 0.00 0.00 0.01 0.01 0.01 0.01 0.01 0.01 0.01 0.01 0.01 0.01 0.01 0.01 0.01 0.01 0.01 0.01 0.01 0.01 0.02 0.01 0.01 0.02 0.01 0.00 0.00 0.00 0.00 0.00 0.00 0.00 0.00 0.00 0.00 0.00 0.00 0.00 0.00 0.00 0.00
0.00 0.00 0.00 0.00 0.00 0.00 0.00 0.01 0.01 0.01 0.01 0.01 0.01 0.01 0.01 0.01 0.01 0.00 0.00 0.01 0.01 0.02 0.02 0.02 0.01 0.01 0.01 0.00 0.00 0.00 0.00 0.00 0.00 0.00 0.00 0.00 0.00 0.00 0.01 0.01 0.00 0.00 0.00
0.00 0.00 0.00 0.00 0.00 0.00 0.00 0.00 0.00 0.01 0.01 0.01 0.01 0.00 0.00 0.00 0.01 0.01 0.01 0.01 0.00 0.01 0.01 0.01 0.01 0.00 0.00 0.00 0.00 0.00 0.00 0.00 0.00 0.00 0.00 0.00 0.00 0.00 0.01 0.01 0.01 0.01 0.01
0.00 0.00 0.00 0.00 0.00 0.00 0.00 0.00 0.00 0.00 0.01 0.01 0.01 0.00 0.00 0.00 0.01 0.01 0.01 0.00 0.00 0.00 0.00 0.00 0.00 0.00 0.00 0.00 0.00 0.00 0.00 0.00 0.00 0.00 0.00 0.00 0.00 0.00 0.01 0.01 0.01 0.01 0.01
0.00 0.00 0.00 0.00 0.00 0.00 0.00 0.00 0.00 0.00 0.01 0.01 0.00 0.00 0.00 0.00 0.00 0.00 0.00 0.00 0.00 0.00 0.00 0.00 0.00 0.00 0.00 0.00 0.00 0.00 0.00 0.00 0.00 0.00 0.00 0.00 0.00 0.00 0.00 0.00 0.00 0.00 0.00
0.00 0.00 0.00 0.00 0.00 0.00 0.00 0.00 0.00 0.00 0.00 0.00 0.00 0.00 0.00 0.00 0.00 0.00 0.00 0.00 0.00 0.00 0.00 0.00 0.00 0.00 0.00 0.00 0.00 0.00 0.00 0.00 0.00 0.00 0.00 0.00 0.00 0.00 0.00 0.00 0.00 0.00 0.00
0.00 0.00 0.00 0.00 0.00 0.00 0.00 0.00 0.00 0.00 0.00 0.00 0.00 0.00 0.00 0.00 0.00 0.00 0.00 0.00 0.00 0.00 0.00 0.00 0.00 0.00 0.00 0.00 0.00 0.00 0.00 0.00 0.00 0.00 0.00 0.00 0.00 0.00 0.00 0.00 0.00 0.00 0.00
0.00 0.00 0.00 0.00 0.00 0.00 0.00 0.00 0.00 0.00 0.00 0.00 0.00 0.00 0.00 0.00 0.00 0.00 0.00 0.00 0.00 0.00 0.00 0.00 0.00 0.00 0.00 0.00 0.00 0.00 0.00 0.00 0.00 0.00 0.00 0.00 0.00 0.00 0.00 0.00 0.00 0.00 0.00
0.00 0.00 0.00 0.00 0.00 0.00 0.00 0.00 0.00 0.00 0.00 0.00 0.00 0.00 0.00 0.00 0.00 0.00 0.00 0.00 0.00 0.00 0.00 0.00 0.00 0.00 0.00 0.00 0.00 0.00 0.00 0.00 0.00 0.00 0.00 0.00 0.00 0.00 0.00 0.01 0.01 0.00 0.00
0.00 0.00 0.00 0.00 0.00 0.00 0.00 0.00 0.00 0.00 0.00 0.00 0.00 0.00 0.00 0.00 0.00 0.00 0.00 0.00 0.00 0.00 0.00 0.00 0.00 0.00 0.00 0.00 0.00 0.00 0.00 0.00 0.00 0.00 0.00 0.00 0.00 0.00 0.00 0.01 0.01 0.01 0.00
0.00 0.00 0.00 0.00 0.00 0.00 0.00 0.00 0.00 0.00 0.00 0.00 0.00 0.00 0.00 0.00 0.00 0.00 0.00 0.00 0.00 0.00 0.00 0.00 0.00 0.00 0.00 0.00 0.00 0.00 0.00 0.00 0.00 0.00 0.00 0.00 0.00 0.00 0.00 0.00 0.01 0.00 0.00
0.00 0.00 0.00 0.00 0.00 0.00 0.00 0.00 0.00 0.00 0.00 0.00 0.00 0.00 0.00 0.00 0.00 0.00 0.00 0.00 0.00 0.00 0.00 0.00 0.00 0.00 0.00 0.00 0.00 0.00 0.00 0.00 0.00 0.00 0.00 0.00 0.00 0.00 0.00 0.00 0.00 0.00 0.00
0.00 0.00 0.00 0.00 0.00 0.00 0.00 0.00 0.00 0.00 0.00 0.00 0.00 0.00 0.00 0.00 0.00 0.00 0.00 0.00 0.00 0.00 0.00 0.00 0.00 0.00 0.00 0.00 0.00 0.00 0.00 0.00 0.00 0.00 0.00 0.00 0.00 0.00 0.00 0.00 0.00 0.00 0.00
0.00 0.00 0.00 0.00 0.00 0.00 0.00 0.00 0.00 0.00 0.00 0.00 0.00 0.00 0.00 0.00 0.00 0.00 0.00 0.00 0.00 0.00 0.00 0.00 0.00 0.00 0.00 0.00 0.00 0.00 0.00 0.00 0.00 0.00 0.00 0.00 0.00 0.00 0.00 0.00 0.00 0.00 0.00
0.00 0.00 0.00 0.00 0.00 0.00 0.00 0.00 0.00 0.00 0.00 0.00 0.00 0.00 0.00 0.00 0.00 0.00 0.00 0.00 0.00 0.00 0.00 0.00 0.00 0.00 0.00 0.00 0.00 0.00 0.00 0.00 0.00 0.00 0.00 0.00 0.00 0.00 0.00 0.00 0.00 0.00 0.00
0.00 0.00 0.00 0.00 0.00 0.00 0.00 0.00 0.00 0.00 0.00 0.00 0.00 0.00 0.00 0.00 0.00 0.00 0.00 0.00 0.00 0.00 0.00 0.00 0.00 0.00 0.00 0.00 0.00 0.00 0.00 0.00 0.00 0.00 0.00 0.00 0.00 0.00 0.00 0.00 0.00 0.00 0.00
0.00 0.00 0.00 0.00 0.00 0.00 0.00 0.00 0.00 0.00 0.00 0.00 0.00 0.00 0.00 0.00 0.00 0.00 0.00 0.00 0.00 0.00 0.00 0.00 0.00 0.00 0.00 0.00 0.00 0.00 0.00 0.00 0.00 0.00 0.00 0.00 0.00 0.00 0.00 0.00 0.00 0.00 0.00
0.00 0.00 0.00 0.00 0.00 0.00 0.00 0.00 0.00 0.00 0.00 0.00 0.00 0.00 0.00 0.00 0.00 0.00 0.00 0.00 0.00 0.00 0.00 0.00 0.00 0.00 0.00 0.00 0.00 0.00 0.00 0.00 0.00 0.00 0.00 0.00 0.00 0.00 0.00 0.00 0.00 0.00 0.00
0.00 0.00 0.00 0.00 0.00 0.00 0.00 0.00 0.00 0.00 0.00 0.00 0.00 0.00 0.00 0.00 0.00 0.00 0.00 0.00 0.00 0.00 0.00 0.00 0.00 0.00 0.00 0.00 0.00 0.00 0.00 0.00 0.00 0.00 0.00 0.00 0.00 0.00 0.00 0.00 0.00 0.00 0.00
0.00 0.00 0.00 0.00 0.00 0.00 0.00 0.00 0.00 0.00 0.00 0.00 0.00 0.00 0.00 0.00 0.00 0.00 0.00 0.00 0.00 0.00 0.00 0.00 0.00 0.00 0.00 0.00 0.00 0.00 0.00 0.00 0.00 0.00 0.00 0.00 0.00 0.00 0.00 0.00 0.00 0.00 0.00
0.00 0.00 0.00 0.00 0.00 0.00 0.00 0.00 0.00 0.00 0.00 0.00 0.00 0.00 0.00 0.00 0.00 0.00 0.00 0.00 0.00 0.00 0.00 0.00 0.00 0.00 0.00 0.00 0.00 0.00 0.00 0.00 0.00 0.00 0.00 0.00 0.00 0.00 0.00 0.00 0.00 0.00 0.00
0.00 0.00 0.00 0.00 0.00 0.00 0.00 0.00 0.00 0.00 0.00 0.00 0.00 0.00 0.00 0.00 0.00 0.00 0.00 0.00 0.00 0.00 0.00 0.00 0.00 0.00 0.00 0.00 0.00 0.00 0.00 0.00 0.00 0.00 0.00 0.00 0.00 0.00 0.00 0.00 0.00 0.00 0.00
0.00 0.00 0.00 0.00 0.00 0.00 0.00 0.00 0.00 0.00 0.00 0.00 0.00 0.00 0.00 0.00 0.00 0.00 0.00 0.00 0.00 0.00 0.00 0.00 0.00 0.00 0.00 0.00 0.00 0.00 0.00 0.00 0.00 0.00 0.00 0.00 0.00 0.00 0.00 0.00 0.00 0.00 0.00
0.00 0.00 0.00 0.00 0.00 0.00 0.00 0.00 0.00 0.00 0.00 0.00 0.00 0.00 0.00 0.00 0.00 0.00 0.00 0.00 0.00 0.00 0.00 0.00 0.00 0.00 0.00 0.00 0.00 0.00 0.00 0.00 0.00 0.00 0.00 0.00 0.00 0.00 0.00 0.00 0.00 0.00 0.00
0.00 0.00 0.00 0.00 0.00 0.00 0.00 0.00 0.00 0.00 0.00 0.00 0.00 0.00 0.00 0.00 0.00 0.00 0.00 0.00 0.00 0.00 0.00 0.00 0.00 0.00 0.00 0.00 0.00 0.00 0.00 0.00 0.00 0.00 0.00 0.00 0.00 0.00 0.00 0.00 0.00 0.00 0.00
0.00 0.00 0.00 0.00 0.00 0.00 0.00 0.00 0.00 0.00 0.00 0.00 0.00 0.00 0.00 0.00 0.00 0.00 0.00 0.00 0.00 0.00 0.00 0.00 0.00 0.00 0.00 0.00 0.00 0.00 0.00 0.00 0.00 0.00 0.00 0.00 0.00 0.00 0.00 0.00 0.00 0.00 0.00
MSLP
1018.84 1018.49 1018.26 1018.18 1018.24 1018.39 1018.58 1018.74 1018.83 1018.84 1018.78 1018.68 1018.60 1018.58 1018.62 1018.73 1018.88 1019.03 1019.15 1019.21 1019.22 1019.18 1019.12 1019.07 1019.06 1019.09 1019.16 1019.22 1019.26 1019.26 1019.18 1019.05 1018.88 1018.69 1018.51 1018.36 1018.27 1018.22 1018.20 1018.21 1018.21 1018.20 1018.19
1018.43 1018.18 1018.03 1018.01 1018.10 1018.27 1018.45 1018.60 1018.69 1018.70 1018.67 1018.63 1018.62 1018.67 1018.79 1018.97 1019.17 1019.35 1019.48 1019.53 1019.52 1019.46 1019.38 1019.31 1019.28 1019.30 1019.34 1019.39 1019.42 1019.40 1019.31 1019.18 1019.01 1018.82 1018.66 1018.53 1018.44 1018.38 1018.36 1018.33 1018.31 1018.27 1018.21
1018.01 1017.85 1017.78 1017.81 1017.94 1018.13 1018.32 1018.48 1018.58 1018.63 1018.65 1018.68 1018.75 1018.87 1019.07 1019.29 1019.53 1019.72 1019.84 1019.87 1019.83 1019.74 1019.64 1019.55 1019.50 1019.50 1019.52 1019.55 1019.56 1019.52 1019.43 1019.29 1019.12 1018.95 1018.80 1018.68 1018.59 1018.53 1018.49 1018.44 1018.38 1018.31 1018.23
1017.64 1017.57 1017.57 1017.65 1017.81 1018.02 1018.23 1018.41 1018.55 1018.65 1018.72 1018.82 1018.95 1019.15 1019.38 1019.64 1019.88 1020.07 1020.17 1020.18 1020.11 1020.00 1019.88 1019.79 1019.73 1019.71 1019.72 1019.73 1019.72 1019.66 1019.56 1019.41 1019.25 1019.08 1018.93 1018.81 1018.72 1018.64 1018.58 1018.51 1018.43 1018.33 1018.24
1017.40 1017.40 1017.45 1017.58 1017.77 1018.00 1018.23 1018.43 1018.59 1018.73 1018.86 1019.01 1019.19 1019.42 1019.69 1019.95 1020.18 1020.34 1020.41 1020.41 1020.33 1020.22 1020.10 1020.02 1019.97 1019.95 1019.96 1019.96 1019.92 1019.85 1019.73 1019.57 1019.40 1019.23 1019.07 1018.93 1018.81 1018.71 1018.62 1018.53 1018.43 1018.33 1018.23
1017.31 1017.36 1017.46 1017.63 1017.84 1018.08 1018.31 1018.52 1018.70 1018.86 1019.02 1019.20 1019.42 1019.66 1019.93 1020.18 1020.38 1020.52 1020.57 1020.55 1020.48 1020.39 1020.30 1020.25 1020.23 1020.23 1020.24 1020.24 1020.19 1020.10 1019.97 1019.80 1019.61 1019.41 1019.23 1019.06 1018.91 1018.77 1018.64 1018.52 1018.41 1018.31 1018.22
1017.36 1017.45 1017.58 1017.77 1018.00 1018.24 1018.47 1018.67 1018.85 1019.01 1019.19 1019.38 1019.60 1019.85 1020.10 1020.33 1020.51 1020.62 1020.66 1020.65 1020.60 1020.54 1020.49 1020.48 1020.50 1020.53 1020.56 1020.56 1020.52 1020.42 1020.27 1020.09 1019.88 1019.66 1019.45 1019.24 1019.04 1018.85 1018.67 1018.52 1018.39 1018.29 1018.22
1017.47 1017.60 1017.77 1017.97 1018.21 1018.44 1018.66 1018.84 1019.01 1019.17 1019.33 1019.52 1019.74 1019.98 1020.22 1020.43 1020.59 1020.69 1020.73 1020.73 1020.71 1020.69 1020.69 1020.73 1020.79 1020.85 1020.90 1020.91 1020.87 1020.77 1020.62 1020.44 1020.22 1019.98 1019.73 1019.48 1019.23 1018.99 1018.76 1018.57 1018.41 1018.31 1018.26
1017.55 1017.71 1017.92 1018.16 1018.41 1018.63 1018.84 1019.00 1019.15 1019.29 1019.45 1019.64 1019.86 1020.10 1020.33 1020.53 1020.69 1020.79 1020.84 1020.85 1020.85 1020.87 1020.91 1020.98 1021.07 1021.15 1021.22 1021.24 1021.20 1021.12 1020.98 1020.80 1020.59 1020.35 1020.09 1019.80 1019.51 1019.21 1018.93 1018.69 1018.50 1018.38 1018.33
1017.50 1017.72 1017.98 1018.26 1018.53 1018.76 1018.96 1019.11 1019.24 1019.38 1019.54 1019.73 1019.96 1020.21 1020.46 1020.67 1020.84 1020.95 1021.01 1021.04 1021.06 1021.09 1021.15 1021.24 1021.33 1021.42 1021.48 1021.50 1021.48 1021.41 1021.29 1021.14 1020.96 1020.73 1020.47 1020.17 1019.84 1019.50 1019.17 1018.87 1018.64 1018.49 1018.41
1017.25 1017.55 1017.88 1018.21 1018.52 1018.78 1018.98 1019.14 1019.27 1019.41 1019.58 1019.80 1020.06 1020.33 1020.61 1020.84 1021.03 1021.16 1021.24 1021.28 1021.31 1021.35 1021.41 1021.48 1021.56 1021.63 1021.68 1021.70 1021.68 1021.62 1021.53 1021.41 1021.27 1021.08 1020.83 1020.54 1020.20 1019.82 1019.44 1019.10 1018.81 1018.61 1018.51
1016.79 1017.17 1017.58 1018.00 1018.36 1018.66 1018.89 1019.07 1019.22 1019.39 1019.59 1019.84 1020.13 1020.45 1020.75 1021.03 1021.24 1021.40 1021.49 1021.55 1021.58 1021.62 1021.66 1021.71 1021.76 1021.80 1021.82 1021.81 1021.78 1021.73 1021.67 1021.59 1021.48 1021.33 1021.13 1020.85 1020.51 1020.13 1019.72 1019.32 1018.99 1018.74 1018.59
1016.11 1016.59 1017.10 1017.60 1018.04 1018.40 1018.67 1018.89 1019.08 1019.29 1019.53 1019.82 1020.16 1020.51 1020.86 1021.17 1021.42 1021.60 1021.71 1021.78 1021.82 1021.85 1021.88 1021.91 1021.92 1021.92 1021.90 1021.87 1021.82 1021.76 1021.71 1021.65 1021.58 1021.47 1021.30 1021.06 1020.74 1020.36 1019.93 1019.52 1019.14 1018.85 1018.65
1015.27 1015.83 1016.44 1017.03 1017.55 1017.98 1018.33 1018.61 1018.85 1019.11 1019.40 1019.74 1020.12 1020.51 1020.89 1021.22 1021.49 1021.70 1021.84 1021.93 1021.99 1022.02 1022.05 1022.06 1022.06 1022.02 1021.97 1021.90 1021.82 1021.74 1021.68 1021.62 1021.56 1021.48 1021.34 1021.13 1020.84 1020.48 1020.07 1019.65 1019.26 1018.94 1018.70
1014.30 1014.95 1015.64 1016.32 1016.92 1017.44 1017.87 1018.22 1018.54 1018.86 1019.21 1019.59 1020.00 1020.41 1020.80 1021.15 1021.44 1021.66 1021.82 1021.94 1022.03 1022.10 1022.15 1022.17 1022.17 1022.13 1022.05 1021.94 1021.82 1021.71 1021.61 1021.53 1021.46 1021.38 1021.26 1021.08 1020.83 1020.51 1020.13 1019.74 1019.36 1019.02 1018.77
1013.25 1013.96 1014.72 1015.47 1016.17 1016.78 1017.30 1017.75 1018.16 1018.56 1018.96 1019.38 1019.81 1020.22 1020.61 1020.95 1021.24 1021.48 1021.66 1021.82 1021.96 1022.08 1022.18 1022.24 1022.26 1022.23 1022.15 1022.02 1021.87 1021.71 1021.56 1021.44 1021.33 1021.23 1021.11 1020.95 1020.73 1020.46 1020.14 1019.79 1019.45 1019.14 1018.88
1012.15 1012.90 1013.71 1014.53 1015.31 1016.02 1016.65 1017.22 1017.73 1018.21 1018.68 1019.13 1019.57 1019.98 1020.35 1020.67 1020.94 1021.18 1021.39 1021.59 1021.78 1021.97 1022.14 1022.27 1022.35 1022.35 1022.29 1022.15 1021.97 1021.77 1021.58 1021.39 1021.24 1021.10 1020.96 1020.81 1020.62 1020.40 1020.14 1019.86 1019.57 1019.31 1019.07
1011.01 1011.78 1012.63 1013.51 1014.37 1015.19 1015.94 1016.63 1017.26 1017.84 1018.38 1018.87 1019.31 1019.71 1020.05 1020.34 1020.60 1020.83 1021.06 1021.30 1021.55 1021.81 1022.05 1022.26 1022.41 1022.47 1022.44 1022.32 1022.14 1021.91 1021.67 1021.44 1021.22 1021.04 1020.87 1020.71 1020.55 1020.37 1020.17 1019.96 1019.75 1019.54 1019.33
1009.85 1010.63 1011.50 1012.43 1013.37 1014.29 1015.17 1015.99 1016.75 1017.43 1018.05 1018.59 1019.05 1019.44 1019.76 1020.02 1020.26 1020.49 1020.73 1021.00 1021.31 1021.63 1021.94 1022.22 1022.44 1022.57 1022.59 1022.51 1022.34 1022.11 1021.85 1021.58 1021.33 1021.10 1020.90 1020.73 1020.57 1020.42 1020.27 1020.12 1019.97 1019.81 1019.65
1008.69 1009.47 1010.37 1011.34 1012.35 1013.37 1014.36 1015.31 1016.19 1016.98 1017.68 1018.28 1018.77 1019.16 1019.48 1019.74 1019.97 1020.20 1020.46 1020.76 1021.09 1021.46 1021.82 1022.16 1022.43 1022.62 1022.70 1022.67 1022.55 1022.35 1022.10 1021.82 1021.55 1021.30 1021.07 1020.87 1020.70 1020.56 1020.43 1020.32 1020.21 1020.10 1019.98
1007.58 1008.37 1009.28 1010.29 1011.36 1012.45 1013.54 1014.59 1015.57 1016.46 1017.24 1017.89 1018.43 1018.85 1019.19 1019.47 1019.72 1019.97 1020.25 1020.57 1020.93 1021.31 1021.70 1022.07 1022.38 1022.61 1022.74 1022.78 1022.72 1022.59 1022.38 1022.14 1021.88 1021.62 1021.36 1021.13 1020.93 1020.77 1020.64 1020.53 1020.44 1020.36 1020.26
1006.60 1007.39 1008.32 1009.34 1010.44 1011.58 1012.73 1013.84 1014.89 1015.85 1016.69 1017.40 1017.99 1018.46 1018.85 1019.18 1019.48 1019.78 1020.10 1020.44 1020.81 1021.20 1021.58 1021.94 1022.27 1022.53 1022.71 1022.82 1022.85 1022.80 1022.68 1022.50 1022.28 1022.02 1021.76 1021.49 1021.24 1021.02 1020.85 1020.71 1020.61 1020.53 1020.45
1005.81 1006.62 1007.54 1008.56 1009.65 1010.80 1011.95 1013.08 1014.16 1015.14 1016.01 1016.77 1017.41 1017.95 1018.41 1018.83 1019.21 1019.58 1019.96 1020.33 1020.71 1021.09 1021.45 1021.79 1022.10 1022.37 1022.60 1022.78 1022.90 1022.96 1022.95 1022.87 1022.71 1022.48 1022.20 1021.89 1021.58 1021.29 1021.04 1020.84 1020.70 1020.60 1020.52
1005.28 1006.09 1007.00 1007.99 1009.04 1010.14 1011.25 1012.34 1013.37 1014.34 1015.21 1015.98 1016.67 1017.28 1017.84 1018.36 1018.85 1019.33 1019.78 1020.20 1020.60 1020.96 1021.29 1021.60 1021.89 1022.16 1022.42 1022.67 1022.89 1023.07 1023.17 1023.20 1023.12 1022.93 1022.64 1022.29 1021.91 1021.53 1021.18 1020.91 1020.71 1020.58 1020.49
1005.00 1005.81 1006.69 1007.62 1008.60 1009.61 1010.63 1011.63 1012.58 1013.48 1014.31 1015.08 1015.79 1016.47 1017.13 1017.77 1018.39 1018.98 1019.52 1020.01 1020.44 1020.80 1021.10 1021.37 1021.63 1021.90 1022.19 1022.50 1022.81 1023.11 1023.34 1023.47 1023.47 1023.33 1023.05 1022.66 1022.20 1021.73 1021.29 1020.93 1020.66 1020.49 1020.39
1004.92 1005.71 1006.54 1007.40 1008.29 1009.19 1010.09 1010.97 1011.81 1012.61 1013.37 1014.11 1014.84 1015.57 1016.32 1017.07 1017.81 1018.53 1019.17 1019.74 1020.20 1020.57 1020.86 1021.11 1021.35 1021.61 1021.93 1022.29 1022.69 1023.09 1023.44 1023.67 1023.76 1023.66 1023.39 1022.98 1022.46 1021.90 1021.38 1020.93 1020.60 1020.39 1020.28
Thickness
5710 5711 5709 5707 5707 5707 5707 5707 5707 5707 5706 5707 5708 5708 5708 5707 5708 5707 5707 5708 5709 5711 5711 5711 5711 5711 5712 5714 5714 5715 5716 5717 5718 5720 5722 5724 5726 5727 5727 5729 5730 5731 5731
5716 5714 5712 5710 5709 5708 5708 5708 5708 5708 5707 5707 5708 5708 5707 5707 5707 5707 5707 5708 5709 5709 5710 5710 5710 5710 5710 5711 5712 5713 5714 5715 5716 5717 5720 5722 5723 5724 5724 5725 5727 5729 5730
5718 5716 5713 5711 5710 5708 5707 5707 5706 5706 5706 5706 5706 5705 5705 5705 5705 5705 5705 5705 5706 5707 5707 5707 5707 5707 5707 5708 5709 5709 5710 5712 5713 5714 5717 5719 5720 5721 5721 5721 5722 5725 5726
5718 5716 5713 5712 5711 5710 5708 5707 5706 5705 5705 5704 5704 5703 5702 5701 5702 5702 5701 5701 5702 5703 5703 5703 5703 5703 5703 5704 5705 5706 5707 5708 5710 5711 5713 5714 5716 5718 5719 5719 5719 5721 5722
5715 5713 5712 5711 5710 5709 5708 5706 5705 5705 5703 5702 5701 5700 5699 5697 5697 5697 5698 5697 5698 5699 5700 5700 5700 5700 5700 5701 5702 5703 5704 5705 5708 5709 5710 5710 5712 5714 5716 5716 5717 5719 5720
5713 5711 5710 5709 5708 5707 5706 5704 5703 5703 5701 5699 5698 5697 5696 5695 5694 5694 5695 5695 5695 5696 5696 5697 5697 5696 5696 5696 5698 5700 5700 5702 5705 5706 5707 5708 5710 5712 5712 5713 5714 5715 5716
5711 5709 5707 5706 5705 5704 5704 5702 5701 5701 5699 5697 5695 5694 5693 5692 5691 5691 5691 5691 5692 5692 5692 5692 5691 5691 5691 5693 5695 5696 5697 5698 5700 5702 5703 5704 5706 5708 5709 5710 5711 5712 5712
5709 5706 5704 5701 5700 5700 5700 5699 5698 5697 5695 5694 5692 5691 5690 5689 5687 5686 5686 5686 5686 5687 5687 5687 5686 5687 5687 5688 5689 5690 5691 5693 5695 5697 5698 5700 5701 5703 5705 5706 5708 5709 5709
5708 5704 5701 5699 5698 5696 5696 5695 5694 5693 5691 5689 5688 5686 5686 5684 5682 5681 5681 5681 5681 5682 5682 5682 5682 5682 5683 5683 5684 5685 5686 5687 5690 5691 5693 5695 5697 5699 5700 5701 5702 5703 5703
5705 5703 5700 5697 5696 5694 5692 5691 5689 5688 5686 5684 5683 5682 5681 5679 5677 5676 5676 5676 5676 5677 5678 5677 5677 5677 5677 5678 5680 5681 5681 5682 5684 5685 5687 5689 5691 5692 5694 5695 5696 5696 5697
5702 5701 5699 5697 5694 5692 5689 5686 5684 5682 5681 5679 5677 5676 5675 5674 5673 5672 5672 5671 5671 5671 5671 5671 5670 5671 5671 5672 5674 5675 5675 5676 5678 5679 5680 5682 5683 5685 5687 5688 5689 5690 5690
5704 5701 5699 5696 5692 5689 5686 5682 5679 5677 5676 5674 5672 5671 5670 5669 5669 5667 5666 5665 5664 5664 5664 5664 5664 5664 5666 5667 5667 5667 5668 5669 5670 5672 5673 5674 5675 5676 5678 5680 5682 5682 5683
5711 5704 5699 5695 5690 5686 5682 5678 5675 5673 5672 5670 5668 5667 5665 5663 5662 5661 5659 5657 5656 5656 5656 5655 5656 5657 5658 5658 5658 5659 5661 5662 5663 5663 5664 5666 5666 5668 5670 5673 5674 5675 5675
5708 5705 5700 5694 5688 5683 5680 5675 5672 5669 5667 5665 5663 5660 5658 5657 5655 5653 5651 5650 5649 5648 5647 5647 5648 5649 5650 5650 5650 5651 5652 5653 5654 5654 5655 5657 5659 5661 5663 5665 5666 5666 5667
5706 5703 5698 5693 5688 5681 5676 5671 5668 5665 5662 5660 5657 5654 5653 5651 5649 5647 5645 5643 5641 5640 5640 5639 5640 5641 5641 5642 5642 5642 5643 5644 5645 5646 5647 5649 5651 5652 5654 5656 5658 5659 5659
5708 5702 5696 5691 5686 5680 5675 5669 5665 5660 5657 5654 5651 5649 5647 5646 5645 5642 5638 5635 5633 5631 5630 5630 5630 5631 5633 5633 5633 5634 5635 5636 5637 5639 5640 5641 5642 5644 5646 5648 5650 5650 5651
5713 5705 5696 5690 5683 5678 5672 5666 5660 5655 5651 5648 5645 5643 5641 5640 5639 5636 5631 5627 5625 5623 5622 5622 5622 5623 5624 5623 5623 5624 5626 5628 5629 5631 5632 5633 5634 5636 5638 5640 5640 5641 5641
5713 5707 5699 5691 5683 5676 5670 5663 5656 5651 5646 5642 5639 5637 5635 5634 5632 5629 5625 5621 5618 5616 5615 5615 5614 5613 5612 5612 5612 5615 5617 5619 5620 5621 5622 5623 5625 5628 5629 5630 5629 5630 5631
5715 5709 5700 5693 5685 5676 5667 5659 5652 5646 5641 5637 5633 5631 5629 5627 5625 5622 5618 5614 5611 5609 5608 5607 5603 5602 5601 5601 5602 5604 5607 5608 5609 5611 5612 5613 5615 5617 5617 5617 5616 5616 5617
5716 5709 5701 5692 5683 5672 5661 5652 5645 5640 5635 5631 5628 5625 5622 5619 5617 5613 5609 5606 5604 5601 5599 5596 5593 5591 5589 5589 5591 5592 5595 5597 5598 5599 5600 5601 5603 5604 5604 5602 5601 5601 5602
5713 5705 5697 5688 5679 5669 5660 5652 5644 5638 5632 5627 5623 5620 5615 5611 5608 5604 5601 5597 5594 5591 5588 5585 5582 5579 5578 5579 5579 5579 5582 5586 5588 5588 5588 5588 5588 5588 5588 5586 5586 5586 5586
5714 5705 5695 5687 5678 5671 5664 5655 5645 5635 5627 5623 5618 5612 5608 5604 5600 5597 5594 5590 5585 5581 5576 5573 5571 5568 5566 5566 5564 5562 5561 5567 5574 5576 5575 5576 5575 5574 5572 5569 5567 5566 5566
5709 5702 5694 5684 5675 5667 5656 5643 5632 5621 5615 5610 5608 5605 5601 5598 5593 5590 5586 5580 5575 5571 5566 5562 5560 5559 5554 5551 5551 5549 5547 5545 5546 5558 5561 5565 5564 5560 5556 5552 5548 5546 5548
5706 5696 5687 5677 5668 5659 5649 5639 5630 5625 5621 5617 5610 5602 5595 5590 5585 5581 5576 5570 5565 5561 5556 5552 5550 5549 5546 5540 5537 5536 5534 5533 5534 5543 5549 5550 5549 5546 5542 5538 5535 5533 5532
5694 5685 5678 5668 5660 5651 5642 5633 5624 5619 5614 5604 5598 5590 5584 5579 5574 5569 5563 5558 5555 5551 5547 5543 5538 5538 5535 5530 5526 5523 5521 5520 5520 5520 5529 5534 5535 5532 5529 5525 5522 5521 5520
5681 5672 5664 5658 5651 5643 5635 5627 5620 5614 5605 5596 5591 5584 5576 5569 5564 5559 5553 5547 5542 5539 5536 5532 5528 5527 5524 5519 5513 5510 5507 5505 5503 5502 5504 5508 5511 5516 5514 5511 5509 5507 5505